This is the latest recevied weather packets stored in our database for station/object KE4LOJ. If no packets are shown the sender has not sent any weather packets the latest 10 day(s).
| Time | Temp. | Humidity | Pressure | Rain* | Wind** | Luminosity | Snow |
|---|---|---|---|---|---|---|---|
| 1778192064 | 35° C | 37% | 1012.6 hPa | 0 mm | - | 242 W/m² | - |
| 1778191760 | 35° C | 37% | 1012.6 hPa | 0 mm | - | 238 W/m² | - |
| 1778191459 | 35° C | 37% | 1012.7 hPa | 0 mm | - | 267 W/m² | - |
| 1778191155 | 35° C | 34% | 1012.6 hPa | 0 mm | - | 289 W/m² | - |
| 1778190852 | 35.56° C | 32% | 1012.5 hPa | 0 mm | - | 311 W/m² | - |
| 1778190549 | 35.56° C | 30% | 1012.5 hPa | 0 mm | - | 329 W/m² | - |
| 1778190247 | 35.56° C | 30% | 1012.7 hPa | 0 mm | - | 322 W/m² | - |
| 1778189942 | 35.56° C | 30% | 1012.5 hPa | 0 mm | - | 365 W/m² | - |
| 1778189638 | 35.56° C | 30% | 1012.5 hPa | 0 mm | - | 376 W/m² | - |
| 1778189336 | 36.11° C | 29% | 1012.7 hPa | 0 mm | - | 377 W/m² | - |
| 1778189031 | 35.56° C | 30% | 1012.7 hPa | 0 mm | - | 393 W/m² | - |
| 1778188728 | 35.56° C | 30% | 1012.7 hPa | 0 mm | - | 431 W/m² | - |
| 1778188425 | 35.56° C | 30% | 1012.7 hPa | 0 mm | - | 445 W/m² | - |
| 1778188122 | 35.56° C | 29% | 1012.9 hPa | 0 mm | - | 461 W/m² | - |
| 1778187819 | 35.56° C | 29% | 1013.1 hPa | 0 mm | - | 475 W/m² | - |
| 1778187515 | 35.56° C | 29% | 1013 hPa | 0 mm | - | 493 W/m² | - |
| 1778187212 | 35.56° C | 30% | 1012.8 hPa | 0 mm | - | 507 W/m² | - |
| 1778186908 | 35.56° C | 28% | 1012.8 hPa | 0 mm | - | 526 W/m² | - |
| 1778186606 | 35.56° C | 28% | 1013.1 hPa | 0 mm | - | 538 W/m² | - |
| 1778186303 | 35.56° C | 29% | 1013 hPa | 0 mm | - | 553 W/m² | - |
| 1778186001 | 35.56° C | 28% | 1013.1 hPa | 0 mm | - | 570 W/m² | - |
| 1778185697 | 35.56° C | 29% | 1013.1 hPa | 0 mm | - | 584 W/m² | - |
| 1778185394 | 35.56° C | 30% | 1013.2 hPa | 0 mm | - | 596 W/m² | - |
| 1778185089 | 35° C | 30% | 1013.2 hPa | 0 mm | - | 614 W/m² | - |
| 1778184785 | 35.56° C | 30% | 1013.2 hPa | 0 mm | - | 628 W/m² | - |
* Rain latest hour (hover to see other rain measurements)
** Current wind speed in m/s (hover to see current wind gust speed)